Time,TemperatureF,DewpointF,PressureIn,WindDirection,WindDirectionDegrees,WindSpeedMPH,WindSpeedGustMPH,Humidity,HourlyPrecipIn,Conditions,Clouds,dailyrainin,SoftwareType,DateUTC
2013-08-24 00:13:00,72.0,69.0,-100.00,SE,125,5.0,19.0,89,0.00,,,-99.99,,2013-08-24 05:13:00,
2013-08-24 00:53:00,72.0,70.0,-100.00,SSE,150,4.0,9.0,92,0.00,,,-99.99,,2013-08-24 05:53:00,
2013-08-24 01:12:00,72.0,70.0,-100.00,ESE,110,3.0,9.0,92,0.00,,,-99.99,,2013-08-24 06:12:00,
2013-08-24 01:52:00,72.0,70.0,-100.00,ESE,105,6.0,9.0,94,0.00,,,-99.99,,2013-08-24 06:52:00,
2013-08-24 02:12:00,72.0,70.0,-100.00,ESE,120,4.0,9.0,94,0.00,,,-99.99,,2013-08-24 07:12:00,
2013-08-24 02:53:00,71.0,70.0,-100.00,SE,140,4.0,9.0,95,0.00,,,-99.99,,2013-08-24 07:53:00,
2013-08-24 03:12:00,71.0,70.0,-100.00,SE,145,3.0,9.0,95,0.00,,,-99.99,,2013-08-24 08:12:00,
2013-08-24 03:52:00,71.0,70.0,-100.00,ESE,115,5.0,9.0,95,0.00,,,-99.99,,2013-08-24 08:52:00,
2013-08-24 04:11:00,71.0,69.0,-100.00,ESE,120,6.0,9.0,95,0.00,,,-99.99,,2013-08-24 09:11:00,
2013-08-24 04:40:00,70.0,69.0,-100.00,SE,140,6.0,9.0,96,0.00,,,-99.99,,2013-08-24 09:40:00,
2013-08-24 04:53:00,70.0,69.0,-100.00,SE,135,6.0,9.0,96,0.00,,,-99.99,,2013-08-24 09:53:00,
2013-08-24 05:13:00,70.0,69.0,-100.00,SE,140,6.0,9.0,96,0.00,,,-99.99,,2013-08-24 10:13:00,
2013-08-24 05:23:00,70.0,69.0,-100.00,SE,140,6.0,9.0,96,0.00,,,-99.99,,2013-08-24 10:23:00,
2013-08-24 05:32:00,70.0,69.0,-100.00,SE,140,6.0,9.0,96,0.00,,,-99.99,,2013-08-24 10:32:00,
2013-08-24 06:00:00,70.0,69.0,-100.00,SE,135,4.0,9.0,96,0.00,,,-99.99,,2013-08-24 11:00:00,
2013-08-24 06:52:00,70.0,69.0,-100.00,SE,135,4.0,9.0,96,0.00,,,-99.99,,2013-08-24 11:52:00,
2013-08-24 08:52:00,71.0,70.0,-100.00,SSE,160,4.0,19.0,94,0.00,,,-99.99,,2013-08-24 13:52:00,
2013-08-24 09:11:00,72.0,70.0,-100.00,SE,130,4.0,9.0,94,0.00,,,-99.99,,2013-08-24 14:11:00,
2013-08-24 09:52:00,72.0,68.0,-100.00,SE,135,4.0,9.0,87,0.00,,,-99.99,,2013-08-24 14:52:00,
2013-08-24 10:12:00,73.0,69.0,-100.00,SE,135,5.0,19.0,87,0.00,,,-99.99,,2013-08-24 15:12:00,
2013-08-24 10:54:00,75.0,69.0,-100.00,South,180,4.0,21.0,80,0.00,,,-99.99,,2013-08-24 15:54:00,
2013-08-24 11:13:00,76.0,69.0,-100.00,SE,130,4.0,19.0,77,0.00,,,-99.99,,2013-08-24 16:13:00,
2013-08-24 11:53:00,79.0,68.0,-100.00,SE,145,5.0,19.0,70,0.00,,,-99.99,,2013-08-24 16:53:00,
2013-08-24 12:12:00,80.0,69.0,-100.00,SSE,155,5.0,19.0,68,0.00,,,-99.99,,2013-08-24 17:12:00,
2013-08-24 13:13:00,87.0,72.0,-100.00,SE,130,4.0,9.0,62,0.00,,,-99.99,,2013-08-24 18:13:00,
2013-08-24 13:53:00,88.0,72.0,-100.00,South,190,4.0,21.0,59,0.00,,,-99.99,,2013-08-24 18:53:00,
2013-08-24 14:12:00,89.0,71.0,-100.00,South,185,4.0,9.0,56,0.00,,,-99.99,,2013-08-24 19:12:00,
2013-08-24 14:52:00,91.0,72.0,-100.00,SSE,155,5.0,9.0,53,0.00,,,-99.99,,2013-08-24 19:52:00,
2013-08-24 15:11:00,91.0,72.0,-100.00,SE,130,4.0,9.0,53,0.00,,,-99.99,,2013-08-24 20:11:00,
2013-08-24 15:52:00,92.0,70.0,-100.00,ESE,120,4.0,9.0,49,0.00,,,-99.99,,2013-08-24 20:52:00,
2013-08-24 16:11:00,92.0,71.0,-100.00,SSE,155,3.0,9.0,49,0.00,,,-99.99,,2013-08-24 21:11:00,
2013-08-24 16:55:00,92.0,70.0,-100.00,SE,130,4.0,9.0,48,0.00,,,-99.99,,2013-08-24 21:55:00,
2013-08-24 17:14:00,92.0,70.0,-100.00,South,175,5.0,20.0,47,0.00,,,-99.99,,2013-08-24 22:14:00,
2013-08-24 17:53:00,93.0,70.0,-100.00,SW,225,4.0,9.0,48,0.00,,,-99.99,,2013-08-24 22:53:00,
2013-08-24 18:12:00,92.0,71.0,-100.00,SSE,160,4.0,9.0,48,0.00,,,-99.99,,2013-08-24 23:12:00,
2013-08-24 18:53:00,91.0,72.0,-100.00,SSE,155,5.0,9.0,54,0.00,,,-99.99,,2013-08-24 23:53:00,
2013-08-24 19:11:00,91.0,72.0,-100.00,SSE,165,6.0,9.0,54,0.00,,,-99.99,,2013-08-25 00:11:00,
2013-08-24 19:52:00,89.0,74.0,-100.00,SE,135,3.0,9.0,62,0.00,,,-99.99,,2013-08-25 00:52:00,
2013-08-24 20:11:00,88.0,74.0,-100.00,SSE,150,3.0,9.0,63,0.00,,,-99.99,,2013-08-25 01:11:00,
2013-08-24 20:52:00,86.0,75.0,-100.00,ESE,120,4.0,7.0,70,0.00,,,-99.99,,2013-08-25 01:52:00,
2013-08-24 21:11:00,86.0,75.0,-100.00,SSE,150,4.0,9.0,71,0.00,,,-99.99,,2013-08-25 02:11:00,
2013-08-24 21:52:00,83.0,76.0,-100.00,SE,130,3.0,6.0,78,0.00,,,-99.99,,2013-08-25 02:52:00,
2013-08-24 22:11:00,83.0,76.0,-100.00,ESE,115,4.0,6.0,79,0.00,,,-99.99,,2013-08-25 03:11:00,
2013-08-24 22:54:00,81.0,77.0,-100.00,SE,135,3.0,6.0,85,0.00,,,-99.99,,2013-08-25 03:54:00,
2013-08-24 23:02:00,-999.0,-99.9,-100.00,SE,125,4.0,6.0,-999,-99.99,,,-99.99,,2013-08-25 04:02:00,
2013-08-24 23:14:00,81.0,77.0,-100.00,SE,125,4.0,6.0,87,0.00,,,-99.99,,2013-08-25 04:14:00,
2013-08-24 23:54:00,81.0,77.0,-100.00,SE,135,4.0,8.0,89,0.00,,,-99.99,,2013-08-25 04:54:00,